Location: Alafon
(8.4500°N, 4.2333°E)
Time: 01:51:34
(UTC+00:00)

Meteor 2-14 Rocket - Pass Details

Date: 05 July 2020
Orbit: 936 x 957 km, 82.5° (Epoch: 06 August)

Event Time Altitude Azimuth Distance (km) Brightness Sun altitude
Rises 19:09:59 0° 178° (S) 3,622 7.2 -15.3°
Reaches altitude 10° 19:12:30 10° 175° (S) 2,678 6.5 -15.8°
Maximum altitude 19:18:35 68° 93° (E) 1,025 4.4 -17.2°
Drops below altitude 10° 19:24:40 10° 11° (NNE) 2,680 7.0 -18.5°
Sets 19:27:10 0° 9° (N) 3,624 7.7 -19.1°
